Location: Titusville
(28.6120°N, 80.8080°W)
Time: 02:49:06
(UTC-05:00)

Envisat - Visible Passes

Search period start: 20 February 2018 00:00
Search period end: 02 March 2018 00:00
Orbit: 764 x 766 km, 98.2° (Epoch: 19 February)

Date Brightness Start Highest point End Pass type
(mag) Time Alt. Az. Time Alt. Az. Time Alt. Az.
20 Feb 3.4 19:28:28 10° SE 19:33:07 37° ENE 19:37:46 10° N visible
20 Feb 5.5 21:08:49 10° SW 21:12:09 18° W 21:15:30 10° NW visible
21 Feb 4.5 18:53:46 10° ESE 18:56:42 16° ENE 18:59:38 10° NNE visible
21 Feb 4.0 20:30:43 11° S 20:35:18 44° W 20:40:08 10° NNW visible
22 Feb 2.8 19:53:33 10° SSE 19:58:35 73° ENE 20:03:38 10° N visible
23 Feb 3.8 19:17:43 10° SE 19:22:03 29° ENE 19:26:22 10° NNE visible
23 Feb 5.1 20:57:00 10° SSW 21:00:57 23° W 21:04:56 10° NW visible
24 Feb 4.7 18:43:54 10° E 18:45:42 12° ENE 18:47:30 10° NE visible
24 Feb 3.5 20:19:10 10° S 20:24:08 58° W 20:29:08 10° NNW visible
25 Feb 3.0 19:42:33 10° SSE 19:47:29 55° ENE 19:52:26 10° N visible
25 Feb 5.9 21:25:01 10° WSW 21:26:43 12° W 21:28:25 10° WNW visible
26 Feb 4.1 19:07:08 10° ESE 19:11:00 22° ENE 19:14:52 10° NNE visible
26 Feb 4.7 20:45:22 10° SSW 20:49:46 30° W 20:54:13 10° NW visible
27 Feb 3.0 20:07:57 10° S 20:13:00 77° WSW 20:18:05 10° NNW visible
28 Feb 3.3 19:31:39 10° SE 19:36:24 42° ENE 19:41:10 10° N visible
28 Feb 5.6 21:12:30 10° SW 21:15:29 16° W 21:18:29 10° WNW visible
01 Mar 4.4 18:56:43 10° ESE 18:59:57 17° ENE 19:03:13 10° NNE visible
01 Mar 4.2 20:33:53 10° SSW 20:38:36 39° W 20:43:21 10° NNW visible
